Tracking 28790 objects as of 19-Apr-2024
HD Live streaming from Space Station
objects crossing your sky now

FENGYUN 1C DEB

Track FENGYUN 1C DEB now!
10-day predictions


NORAD ID: 38727
Int'l Code: 1999-025ETU
Perigee: 822.2 km
Apogee: 989.1 km
Inclination: 98.6 °
Period: 103.0 minutes
Semi major axis: 7276 km
RCS: 0.0029 m2 (small)
Launch date: May 10, 1999
Source: People's Republic of China (PRC)
Launch site: Taiyaun Space Center, China (TSC)

Note: This is SATELLITE DEBRIS
Your satellite tracking list
Your tracking list is empty




NASA's NSSDC Master Catalog

Two Line Element Set (TLE):
1 38727U 99025ETU 24100.88891295  .00002769  00000-0  18488-2 0  9994
2 38727  98.6188 126.7186 0114632 135.7728 347.0359 13.98641131636632
Source of the keplerian elements: AFSPC